Погода Нижний Новгород

Погода Нижний Новгород : погода сейчас, прогноз погоды и архив. Всё, что Вы хотите узнать о погоде Нижний Новгород!

Хотите узнать прогноз погоды в Нижнем Новгороде? Тогда Вам сюда: Погода в Нижнем Новгороде

Поиск расширенной информации на нашем сайте:

Другие новости

Новости СМИ2

Главная страница сайта

Новости сайта

02.10.2013

Напоминаем, что на нашем новом сайте вы можете получить высокодетализированные прогнозы погоды по пунктам России, СНГ и мира (включающие важные для авиации метеовеличины, такие как направление и скорость ветра, видимость, явления погоды, количество и форма облачности, нижняя и верхняя граница облачности), а также ознакомиться с разнообразными материалами по авиационной метеорологии и подборкой полезных ссылок на эту тему.

Сайт Метеоцентр.Азия посвящён разработке технологий оптимизации авиаметеорологического обслуживания, включая проектирование и перспективное создание нескольких автоматизированных авиаметеорологических систем:
- система выпуска высокодетальных прогностических карт явлений погоды для нижнего воздушного пространства по России и ближнему зарубежью;
- система верификации прогнозов TAF (выпускаемых синоптиками официальных АМСГ РФ и ближнего зарубежья) и AUTOTAF (выпускаемых сайтом Метеоцентр.Азия) - выявление ошибок, онлайн-сопоставление с фактической погодой METAR, автоматическое внесение коррективов в прогнозы при резком отклонении фактической погоды от прогноза, подсчёт оправдываемости прогнозов по элементам и в целом;
- система обработки, анализа и отображения авиаметеорологической информации для применения провайдерами метеорологической информации.

Рекомендуем: Пуллер макси для собак: puller maxi игрушка для собак пуллер макси.

Погода Нижний Новгород - сегодня

Время (UTC), дата Ветер
(°,м/с) 
Видим.   Явления Облачность Т
(°С)
Тd
(°С)
f(%) Тe
(°С)
Pmin
(гПа)
dP
(гПа)
Po
(мм)
O2
(г/м3)
Тmin Tmax R s Состояние
почвы
18 27.03.17 310 (СЗ) 2-4{04}  10 км  {снег}  10/10 300 м 
[St]
+0.7 -0.4 92 994.5  1.4  731  294           
21 27.03.17 310 (СЗ) 2-4{05}  10 км    10/10 300 м 
[St]
+0.3 -2.4 82 994.2  -0.3  731  295           
00 28.03.17 290 (З) 2-4{04}  10 км    10/5 600 м средняя 
[Sc|Ac und]
-0.2 -3.2 80 -1  993  -1.3  730  295           
03 28.03.17 250 (З) 1-3{04}  10 км    10/8 600 м средняя 
[Sc|Ac und]
-0.8 -3 85 991.6  -1.3  729  295  -0.9      22  равномерный
мокрый или
старый снег
100% 
06 28.03.17 250 (З) 2-4{04}  10 км  слаб. снег  10/10 300 м 
[Frnb]
+0 -2.3 84 -1  990.8  -0.7  729  294           
09 28.03.17 270 (З) 2-4{04}  10 км  слаб. ливневой снег  9/9 300 м кучево-дожд. 
[Cb cap]
+1.4 -3.1 72 +1  990.4  -0.3  728  292           
12 28.03.17 270 (З) 2-4{04}  10 км  в посл. час крупа{ливн. осадки, снег}  9/9 300 м кучево-дожд. 
[Cb cap]
+2.3 -3 68 +2  990.8  0.4  729  291           
15 28.03.17 310 (СЗ) 3-10{07}  10 км    9/9 600 м кучево-дожд. 
[Cb cap]
+1 -1.9 81 -1  992.8  1.9  730  293    +4.1  0.8     
18 28.03.17 340 (С) 4-9{11}  10 км  {ливн. осадки}  8/8 600 м кучево-дожд. 
[Cb cap]
-1 -4.6 77 -4  995.6  2.6  732  297           
21 28.03.17 330 (СЗ) 3-9{11}  10 км    3/3 1000 м 
[Sc]
-2 -7 69 -4  997.4  1.6  733  298           
00 29.03.17 330 (СЗ) 3-6{09}  10 км    3/3 1000 м 
[Sc]
-3.5 -7.9 72 -6  998.6  1.1  734  300          затоплена
водой 
03 29.03.17 320 (СЗ) 3-6{08}  10 км    3/0 средняя 
[Ac trans]
-4.7 -9.1 71 -7  1000.4  1.7  735  302  -4.8    0.0  22  равномерный
мокрый или
старый снег
100% 
06 29.03.17 320 (СЗ) 3-9{10}  10 км  слаб. снег  10/10 600 м 
[Sc]
-4.4 -8.3 74 -7  1002.1  1.7  737  303           
09 29.03.17 310 (СЗ) 2-10{11}  10 км  {снег}  8/8 600 м кучево-дожд. 
[Cb cap]
-3.1 -11.9 51 -4  1003.7  1.6  738  302           
12 29.03.17 310 (СЗ) 4-12{13}  10 км  {снег}  6/6 600 м 
[Sc]
-1.3 -11.8 45 -4  1004.8  1.2  739  300           
15 29.03.17 310 (СЗ) 3-10{12}  10 км    4/4 600 м 
[Sc]
-1.8 -14 39 -4  1005.9  1.1  740  301    -1.1  0.0     
18 29.03.17 310 (СЗ) 2-5{11}  10 км    3/3 1000 м 
[Sc]
-3.7 -10.8 58 -5  1007.6  1.5  741  304           
21 29.03.17 310 (СЗ) 1-2{06}  10 км    ясно 
-5.4 -11.9 60 -5  1008.3  0.5  741  306           
00 30.03.17 290 (З) 1-2{03}  10 км    ясно 
-6.4 -11.4 68 -6  1008.3  741  307           
03 30.03.17 270 (З) 2-2{04}  10 км    ясно 
-7.2 -10.6 77 -9  1009.4  742  308  -7.2      22  равномерный
мокрый или
старый снег
100% 
06 30.03.17 310 (СЗ) 2-4{05}  10 км    ясно 
-4.6 -10.3 64 -6  1010.3  0.9  743  305           
09 30.03.17 310 (СЗ) 3-7{08}  10 км    5/5 600 м 
[Cu med, cong]
-1.7 -14.4 37 -4  1010.4  0.5  743  302           
12 30.03.17 300 (СЗ) 2-5{09}  10 км    6/4 1000 м верхняя 
[Cu med, cong|Ci fib]
-1.6 -14.8 36 -3  1011.8  1.4  744  303           
15 30.03.17 320 (СЗ) 3-8{10}  10 км    3/3 1000 м средняя, верхняя 
[Cu hum|Ac trans|Ci fib]
-3 -14.5 41 -5  1014  2.1  746  305    -1.1       
18 30.03.17 310 (СЗ) 3-6{10}  10 км    1/1 1000 м 
[Cu hum]
-4.6 -11.7 58 -7  1017.3  3.1  748  308           
Время (UTC), дата Ветер
(°,м/с) 
Видим.   Явления Облачность Т
(°С)
Тd
(°С)
f(%) Тe
(°С)
Pmin
(гПа)
dP
(гПа)
Po
(мм)
O2
(г/м3)
Тmin Tmax R s Состояние
почвы

Для получения пояснительной информации подведите курсор к названию столбца.

ПОГОДА Нижний Новгород - архив

Всё, что Вы хотите узнать о погоде Нижний Новгород - удобно и подробно!

Выберите нужную дату (начиная с 1 января 2015* года) и нажмите кнопку "Найти".
Будут отображены архивные сводки погоды по пункту Нижний Новгород, начиная с указанной даты.


Отображать данные в формате CSV (для использования в таблицах Excel)


Внимание! Наш архив погоды предназначен исключительно для личного некоммерческого использования в познавательных целях. Если Вам необходимы официальные справки о состоянии погоды (для производственных, юридических, коммерческих и т.п. целей), обращайтесь в органы Росгидромета.

*Примечание: данная дата относится к архиву по метеостанциям СССР (Россия, СНГ, Балтия).
Архив по метеостанциям Зарубежной Европы и Азии (кроме Китая) хранится 10 дней, по другим регионам земного шара (Китай, Африка, Америка, Австралия, Океания) - 1 день.

Нижний Новгород - район местоположения метеостанции


Название, широта, долгота, высота метеостанции:
Нижний Новгород (Мыза) 56.3°ш. 44°д. 157 м над ур. моря [Российская Федерация]

Дополнительная информация

В oтличие oт бoльшинства пoгoдных сайтoв мы публикуем пoдрoбную метеoинфoрмацию в детальнoм прoфессиoнальнoм фoрмате.

Характеристики температуры и влажнoсти вoздуха измеряются на высoте 2 м в тени вдали oт зданий и деревьев.
Скoрoсть ветра измеряется на высoте 10 м (на урoвне рoста челoвека скoрoсть ветра ниже в 1.5-2 раза). Если метеoстанция нахoдится в гoрoде или в лесу, тo скoрoсть ветра занижена на 2-4 м/с пo сравнению с oткрытым местoм. Скoрoсть ветра над акватoриями крупных рек и oзёр, а также на вершинах хoлмoв на 2-5 м/с выше, чем в oбычных услoвиях.
Атмoсфернoе давление в разных тoчках местнoсти мoжет значительнo oтличаться oт давления на метеoстанции, в зависимoсти oт услoвий рельефа (при пoдъёме на 10 м давление пoнижается примернo на 1 мм рт.ст.).